Погода Винницы

Погода Винницы : погода сейчас, прогноз погоды и архив. Всё, что Вы хотите узнать о погоде Винницы!

Поиск расширенной информации на нашем сайте:

Другие новости

Новости СМИ2

Главная страница сайта

Новости сайта

03.07.2017

Напоминаем, что на нашем специализированном сайте Метеоцентр.Азия вы можете получить высокодетализированные автоматические прогнозы погоды по пунктам России, СНГ и мира в авиационном формате (включающие направление и скорость ветра, видимость, явления погоды, количество и форму облачности, нижнюю и верхнюю границу облачности).


Погода Винницы - сегодня

Время (UTC), дата Ветер
(°,м/с) 
Видим.   Явления Облачность Т
(°С)
Тd
(°С)
f(%) Тe
(°С)
Pmin
(гПа)
dP
(гПа)
Po
(мм)
O2
(г/м3)
Тmin Tmax R s Состояние
почвы
18 19.10.17 270 (З) 50000 м    ясно 
+0.1 +0.1 100 +1  1016.1  1.6  752  303    +4       
21 19.10.17 250 (З) 21000 м  туман поземный  ясно 
-1.1 -1.1 100 -1  1017.7  1.5  753  305           
00 20.10.17 250 (З) 24000 м  туман поземный  ясно 
-0.8 -0.8 100 1018.6  0.9  753  305           
03 20.10.17 260 (З) 23000 м  туман поземный  ясно 
-0.5 -0.5 100 1019.2  0.5  754  304  -1.6         
06 20.10.17 250 (З) 24000 м  туман поземный  8/0 средняя 
[Ac und]
-0.3 -0.3 100 1020.1  0.9  755  304  -1.6         
09 20.10.17 010 (С) 20000 м    10/10 540 м кучево-дожд. 
[Cb cap]
+1.9 +1.2 95 +3  1020.8  0.8  755  302           
12 20.10.17 320 (СЗ) 20000 м    8/4 600 м кучево-дожд., средняя 
[Cb cap|Ac und]
+3.2 -0.2 78 +3  1020.8  755  301           
15 20.10.17 320 (СЗ) 50000 м    8/5 600 м кучево-дожд., средняя 
[Cb cap|Ac und]
+0.3 -1.5 88 +1  1021.6  0.6  756  304           
18 20.10.17 230 (ЮЗ) 50000 м    5/3 600 м кучево-дожд., средняя 
[Cb cap|Ac trans]
-1.9 -1.9 100 -1  1022.1  0.3  756  307    +3.7       
21 20.10.17 260 (З) 50000 м    4/0 средняя 
[Ac trans]
-3.2 -3.2 100 -3  1022.5  0.3  756  309           
00 21.10.17 240 (ЮЗ) 50000 м    4/0 средняя 
[Ac trans]
-4.1 -4.1 100 -4  1022.5  756  310           
03 21.10.17 230 (ЮЗ) 50000 м    4/0 средняя 
[Ac trans]
-4.6 -4.7 99 -4  1022.6  756  310  -4.9         
06 21.10.17 230 (ЮЗ) 20000 м    ясно 
-4.2 -4.3 99 -4  1022.8  0.3  756  310  -5.3         
09 21.10.17 310 (СЗ) 20000 м    ясно 
+1.2 -1.2 84 +2  1022.5  0.1  756  304           
12 21.10.17 290 (З) 20000 м    ясно 
+2.6 -3.8 63 +2  1021.1  -1.3  755  302           
15 21.10.17 250 (З) 50000 м    ясно 
-1.3 -3.9 82 -2  1020.3  -1  755  306           
18 21.10.17 260 (З) 50000 м    ясно 
-3.3 -4.6 91 -4  1019.1  -1.3  754  308    +2.8       
21 21.10.17 250 (З) 50000 м    5/0 средняя 
[Ac trans]
-2.8 -4.1 91 -4  1017.9  -1.1  753  307           
00 22.10.17 280 (З) 50000 м    5/0 средняя 
[Ac trans]
-2.1 -3.6 89 -3  1016.7  -1.2  752  306           
03 22.10.17 280 (З) 15000 м  слаб. ливневой снег  10/10 500 м кучево-дожд. 
[Cb cap]
-1.6 -2.6 93 -3  1015.7  -1  751  305  -3.4    0.6     
06 22.10.17 270 (З) 18000 м  слаб. ливневой снег  10/10 540 м кучево-дожд. 
[Cb cap]
-1.2 -1.7 96 -2  1014.8  -0.9  751  304  -3.4    0.9  равномерный
сухой снег
100% 
09 22.10.17 280 (З) 16000 м  слаб. ливневой снег  10/10 540 м кучево-дожд. 
[Cb cap]
-0.1 -0.5 97 +1  1014.5  -0.2  750  303           
12 22.10.17 300 (СЗ) 20000 м  {ливн. осадки}  10/10 700 м кучево-дожд. 
[Cb cap]
+0.6 -0.3 94 +1  1014.5  0.1  750  302           
15 22.10.17 320 (СЗ) 50000 м    5/3 600 м кучево-дожд., средняя 
[Cb cap|Ac und]
-1.6 -1.7 99 -3  1015.3  0.6  751  305         
18 22.10.17 280 (З) 50000 м    ясно 
-3.2 -3.2 100 -3  1016.4  752  307    +0.7  0.9     
Время (UTC), дата Ветер
(°,м/с) 
Видим.   Явления Облачность Т
(°С)
Тd
(°С)
f(%) Тe
(°С)
Pmin
(гПа)
dP
(гПа)
Po
(мм)
O2
(г/м3)
Тmin Tmax R s Состояние
почвы

Для получения пояснительной информации подведите курсор к названию столбца.

ПОГОДА Винницы - архив

Всё, что Вы хотите узнать о погоде Винницы - удобно и подробно!

Выберите нужную дату (начиная с 1 января 2015* года) и нажмите кнопку "Найти".
Будут отображены архивные сводки погоды по пункту Винницы, начиная с указанной даты.


Отображать данные в формате CSV (для использования в таблицах Excel)


Внимание! Наш архив погоды предназначен исключительно для личного некоммерческого использования в познавательных целях. Если Вам необходимы официальные справки о состоянии погоды (для производственных, юридических, коммерческих и т.п. целей), обращайтесь в органы Росгидромета.

*Примечание: данная дата относится к архиву по метеостанциям СССР (Россия, СНГ, Балтия).
Архив по метеостанциям Зарубежной Европы и Азии (кроме Китая) хранится 10 дней, по другим регионам земного шара (Китай, Африка, Америка, Австралия, Океания) - 1 день.

Винницы - район местоположения метеостанции


Название, широта, долгота, высота метеостанции:
Винницы 60.6°ш. 34.8°д. 111 м над ур. моря [Российская Федерация]

Дополнительная информация

В oтличие oт бoльшинства пoгoдных сайтoв мы публикуем пoдрoбную метеoинфoрмацию в детальнoм прoфессиoнальнoм фoрмате.

Характеристики температуры и влажнoсти вoздуха измеряются на высoте 2 м в тени вдали oт зданий и деревьев.
Скoрoсть ветра измеряется на высoте 10 м (на урoвне рoста челoвека скoрoсть ветра ниже в 1.5-2 раза). Если метеoстанция нахoдится в гoрoде или в лесу, тo скoрoсть ветра занижена на 2-4 м/с пo сравнению с oткрытым местoм. Скoрoсть ветра над акватoриями крупных рек и oзёр, а также на вершинах хoлмoв на 2-5 м/с выше, чем в oбычных услoвиях.
Атмoсфернoе давление в разных тoчках местнoсти мoжет значительнo oтличаться oт давления на метеoстанции, в зависимoсти oт услoвий рельефа (при пoдъёме на 10 м давление пoнижается примернo на 1 мм рт.ст.).